Wind_Speed
23 23 23 17 16 11 18 21 16 14 17 16 11 11 14 16 17 18 17 10 10 9 7 9 9 9 14 20 22 25 29 31 29 31 32 34 36 31 30 29 27 29 23 18
21 23 23 25 24 24 25 22 22 23 25 19 17 15 19 19 16 17 17 12 10 10 10 10 13 13 15 20 23 27 26 31 32 30 32 34 33 34 34 32 27 26 25 22
21 21 20 20 29 27 26 25 23 25 23 19 18 18 18 17 16 16 16 12 9 12 12 15 17 19 19 20 25 27 29 30 33 33 32 28 30 34 33 32 30 25 24 21
14 18 24 19 16 13 18 21 16 18 13 13 14 15 15 14 15 17 17 16 9 11 15 18 19 20 21 23 22 28 28 28 30 32 33 30 27 30 31 30 29 26 21 18
9 13 15 15 7 8 7 0 14 14 15 16 19 17 9 10 14 16 18 16 11 17 19 19 21 24 25 24 25 25 28 29 33 34 32 30 28 27 26 25 24 21 19 16
9 8 8 5 12 11 6 7 16 16 16 17 17 9 9 22 21 19 19 18 5 16 19 23 22 23 26 23 26 26 27 29 30 32 33 32 31 29 26 27 25 20 18 15
16 15 15 13 17 12 7 5 19 17 16 17 12 12 21 22 19 17 14 9 7 16 18 20 26 27 25 25 23 27 31 31 30 31 30 30 30 28 27 24 20 18 15 13
11 12 15 20 6 7 11 16 18 16 16 18 18 20 19 18 15 13 8 3 9 13 15 17 25 27 26 26 30 33 33 33 31 31 26 25 28 23 21 21 18 15 14 13
5 4 8 9 8 13 13 15 16 18 17 17 19 18 16 14 13 9 4 3 8 13 16 18 19 28 29 29 32 34 34 31 29 27 26 27 25 20 18 16 15 14 13 11
6 10 15 12 16 16 16 15 17 17 17 16 17 17 14 10 8 5 2 5 8 14 16 18 19 24 30 31 32 33 33 30 27 26 23 21 21 18 16 13 13 12 11 9
5 12 14 14 17 18 17 16 16 15 15 15 14 12 12 9 7 4 1 5 9 13 16 16 21 22 29 31 31 31 29 27 25 23 21 20 17 13 13 11 10 11 9 9
3 11 9 10 13 18 15 16 16 16 17 17 15 11 9 9 12 8 3 9 10 14 23 22 24 24 23 26 34 32 27 23 20 20 18 18 18 16 12 11 10 9 9 7
6 13 4 10 7 19 15 16 15 15 16 17 20 17 14 11 17 19 18 16 16 18 24 25 26 29 27 26 26 24 24 22 19 17 17 16 14 13 13 9 7 6 6 5
11 12 7 11 8 15 16 18 19 20 23 21 22 24 20 15 18 20 20 21 21 23 26 29 29 27 24 25 26 24 22 18 18 16 15 13 11 10 11 11 10 6 4 4
12 9 7 9 11 11 16 18 14 14 15 18 22 22 25 20 18 18 17 21 27 28 25 28 29 24 23 23 22 19 17 15 14 12 11 11 11 10 10 8 7 6 4 2
11 8 9 10 11 12 13 14 14 13 13 18 20 22 21 22 23 25 25 24 24 19 20 24 24 20 19 19 18 16 14 12 11 11 12 11 10 10 9 8 7 6 5 3
10 13 13 13 12 12 12 13 13 12 15 17 18 18 18 17 19 21 22 22 21 21 21 21 18 16 16 15 13 11 9 9 9 8 8 8 8 8 8 7 5 4 3 3
11 11 12 11 10 11 11 15 15 15 15 16 15 15 15 16 14 15 16 15 16 18 17 14 13 13 12 11 11 10 8 7 7 7 8 7 6 6 5 4 4 4 4 3
10 11 12 14 14 13 13 14 15 15 15 15 14 14 13 12 13 12 12 12 11 10 11 10 9 9 9 8 7 7 7 7 7 7 7 7 7 5 4 4 3 4 3 1
11 12 12 12 11 12 12 12 13 13 14 15 14 13 13 13 11 10 9 8 8 6 5 5 4 5 5 6 5 5 5 5 6 6 6 6 6 6 5 3 4 3 2 2
13 13 14 14 13 12 12 13 14 15 15 14 13 13 12 11 10 9 7 5 6 6 4 2 2 2 3 3 3 3 3 4 6 6 5 6 5 4 3 4 3 3 2 2
11 12 13 13 13 13 13 13 13 13 14 13 12 11 11 10 10 9 5 3 5 6 4 2 2 0 0 2 3 3 4 5 5 4 4 5 6 6 4 5 3 3 3 2
11 12 13 14 14 13 12 13 14 13 13 12 11 12 11 10 8 7 5 5 6 6 8 3 4 4 4 5 3 5 5 6 6 5 5 5 5 4 5 5 3 3 3 4
11 11 11 12 11 11 13 15 14 13 14 12 11 11 10 11 10 5 7 9 9 8 7 5 4 6 6 5 3 3 4 5 5 5 5 5 5 6 6 4 4 4 5 5
10 10 9 11 11 11 12 14 13 13 14 13 14 14 12 9 8 11 11 10 9 8 6 5 4 4 1 3 3 4 4 4 5 6 7 7 7 6 5 5 5 5 5 4
9 10 9 9 8 10 11 13 13 12 14 14 14 14 14 13 12 12 10 8 8 6 5 4 4 3 4 4 5 5 5 5 6 7 7 7 6 4 4 5 5 6 5 5
8 9 9 9 9 9 11 12 11 13 13 14 14 14 14 14 14 14 12 9 7 6 4 4 4 4 4 4 5 5 5 5 5 5 5 5 4 5 6 5 5 6 6 5
Wind_Direction
259 266 266 243 257 244 232 244 252 262 253 259 271 277 284 297 301 297 288 273 253 241 219 212 186 157 151 150 153 151 147 141 138 138 141 141 140 140 139 139 144 147 145 136
258 256 260 265 266 253 256 249 250 255 260 265 272 270 271 272 278 280 285 279 250 232 209 195 178 162 155 148 144 142 131 124 126 128 131 130 135 138 140 145 144 146 139 138
258 254 259 250 246 255 261 260 260 260 268 271 265 263 262 271 271 273 275 279 248 222 205 188 175 160 151 145 135 128 126 126 128 130 123 127 132 136 134 135 139 144 139 134
261 260 243 251 258 265 255 256 269 274 305 334 331 331 324 321 313 299 293 283 240 212 199 183 167 150 140 138 135 130 128 127 128 129 130 138 135 127 131 137 143 134 131 141
252 255 270 266 28 14 7 67 31 1 345 342 336 322 295 24 353 331 320 304 268 200 190 175 167 151 145 140 137 135 136 137 137 135 135 134 126 121 129 131 120 133 145 146
252 255 268 285 6 340 311 239 9 354 341 334 336 311 295 345 334 324 314 300 203 173 176 164 161 157 145 144 144 142 141 139 134 134 135 134 135 133 130 137 142 141 139 143
234 245 246 7 328 306 229 351 341 338 331 326 317 310 305 309 313 314 309 300 174 170 166 165 158 155 145 142 143 134 130 129 127 127 126 129 129 132 134 137 135 138 137 136
254 239 230 6 29 2 336 325 330 333 323 315 311 309 307 309 313 316 328 4 136 155 154 162 157 151 143 141 141 137 135 130 131 132 133 129 127 130 135 134 138 137 138 139
22 35 344 37 15 350 342 330 332 326 324 318 316 314 313 314 314 311 308 210 168 156 146 151 165 148 135 138 138 133 131 129 130 130 129 130 132 134 127 136 140 147 151 147
319 17 341 30 10 360 341 336 335 336 327 326 322 318 317 323 319 304 256 186 152 150 151 149 150 140 132 136 133 128 123 123 122 120 120 124 124 126 134 143 144 139 143 139
292 8 340 14 359 350 344 348 349 343 344 346 339 346 344 349 342 324 285 138 164 152 138 126 127 125 128 129 128 119 113 115 117 120 121 115 113 124 126 128 139 142 144 151
312 339 309 321 339 348 351 353 3 3 5 6 6 12 26 28 19 13 60 103 111 111 114 114 113 109 107 112 119 114 109 114 117 117 120 120 118 111 102 128 138 137 150 150
326 318 360 343 344 350 350 355 7 9 17 15 7 12 37 62 64 63 52 65 89 98 103 104 102 97 107 112 116 117 119 122 123 122 117 114 124 127 124 120 129 139 144 145
349 344 358 359 345 346 348 356 6 19 20 19 21 22 18 32 60 75 77 75 76 83 83 86 82 75 83 95 99 100 103 106 106 109 114 121 134 142 147 150 150 145 155 144
352 351 340 338 352 357 360 8 13 16 12 13 18 24 26 30 34 39 62 84 84 79 74 80 77 75 90 94 95 97 100 102 105 111 124 132 136 136 130 124 131 140 143 128
336 357 355 5 360 7 7 13 16 9 10 11 14 18 20 30 33 36 41 55 69 66 71 79 83 87 92 99 102 102 106 117 125 130 138 140 138 131 128 141 153 152 151 157
353 360 357 3 1 2 9 9 9 6 6 13 12 12 21 26 37 33 35 45 57 68 74 77 82 89 95 98 98 99 108 120 127 134 142 140 138 138 144 150 137 133 157 178
352 350 356 355 353 355 1 5 3 4 4 1 13 16 21 27 29 30 31 46 58 60 63 70 86 92 96 101 109 116 116 125 131 134 133 126 129 133 136 141 154 171 170 185
1 357 358 356 357 355 358 358 359 360 2 2 14 14 12 19 24 24 30 40 45 54 37 53 79 100 111 109 112 116 123 135 139 140 135 144 148 156 167 168 175 169 169 164
358 360 0 360 0 0 355 357 354 359 0 1 5 12 6 3 12 15 25 55 47 41 36 52 77 101 121 130 123 131 136 144 149 153 152 168 172 172 175 185 175 181 186 189
352 352 354 357 355 356 359 358 358 357 356 359 3 1 349 343 353 359 17 36 27 20 29 45 56 91 132 142 149 163 166 163 157 164 179 189 187 191 192 186 186 207 208 209
345 345 343 350 349 348 353 353 356 354 355 356 358 358 350 352 355 358 7 6 360 356 352 356 358 26 235 232 197 174 168 173 178 180 188 194 201 194 213 192 197 213 221 250
341 341 343 348 346 342 347 356 353 348 351 352 352 351 345 336 336 342 351 359 341 326 328 330 305 304 300 294 240 196 196 207 202 201 209 217 213 205 206 205 218 222 224 265
339 339 339 344 339 348 354 353 349 352 347 347 346 342 335 335 337 338 317 318 317 311 304 302 298 302 305 309 235 208 187 186 195 210 222 211 207 202 202 213 224 225 251 255
337 330 338 350 346 352 347 343 345 355 351 351 349 348 348 342 325 321 323 319 310 308 307 307 291 293 110 135 165 183 206 214 212 202 197 195 199 206 212 224 227 251 258 276
338 339 344 345 343 343 339 346 349 345 349 346 342 351 347 345 338 330 317 313 307 298 288 280 269 262 248 241 233 225 213 206 193 192 189 188 190 203 223 250 253 272 276 282
329 341 352 353 357 349 348 345 344 342 338 329 338 344 344 347 348 349 346 334 328 317 300 278 261 233 224 220 213 203 194 187 187 183 177 188 198 225 259 265 272 271 277 260
Height
715 713 713 722 725 716 717 715 723 710 708 704 704 705 699 697 698 697 692 694 701 703 705 710 711 712 715 718 723 726 729 731 738 746 756 763 764 776 783 793 803 803 816 823
722 716 716 713 708 709 707 707 707 705 703 703 699 699 695 694 696 692 688 690 694 699 702 707 711 713 717 718 720 725 729 730 737 748 755 757 770 777 782 791 803 811 814 821
716 708 708 709 695 699 696 692 694 692 691 691 691 689 689 688 686 687 683 682 685 693 698 703 708 712 715 720 720 723 729 734 738 749 754 768 772 776 783 794 801 816 814 814
719 705 712 685 685 685 684 684 687 686 690 694 695 696 699 694 689 685 681 679 680 688 694 699 706 711 715 719 724 725 732 738 745 751 760 774 780 780 787 796 806 805 812 822
726 703 694 689 726 725 722 700 725 724 718 714 711 702 689 699 702 699 692 681 673 682 690 698 704 708 714 719 724 730 735 742 747 753 764 772 777 783 793 802 799 810 820 826
733 731 718 693 740 738 735 723 737 734 731 727 722 709 689 696 699 697 691 682 675 681 690 695 704 710 713 721 726 732 739 745 750 757 764 773 781 788 791 795 807 816 820 825
721 717 705 761 751 739 725 737 750 747 739 737 733 726 715 708 702 700 690 683 682 686 693 698 703 710 715 722 730 733 739 747 754 760 769 776 781 789 795 802 810 814 818 822
714 719 724 773 748 757 771 764 757 753 748 741 733 725 716 709 705 702 695 691 690 694 697 705 705 708 715 721 730 735 742 747 756 764 773 779 782 792 799 801 811 815 819 822
783 779 784 785 786 784 778 772 763 757 749 742 732 722 716 710 708 705 702 700 700 700 705 708 713 710 715 725 731 736 744 753 762 768 775 778 788 796 797 804 810 815 818 820
790 789 792 788 786 786 782 775 765 758 750 743 734 725 718 713 710 708 705 706 706 708 709 712 717 717 719 727 733 739 745 755 764 771 778 786 788 793 801 808 810 812 815 818
793 793 786 782 792 790 782 776 772 763 753 745 736 728 724 717 714 713 711 711 712 712 714 718 723 726 726 730 738 744 750 760 769 777 783 787 793 799 801 805 809 811 814 818
809 811 810 801 798 795 787 781 774 765 757 748 742 735 731 727 724 721 719 716 719 720 721 728 731 734 737 739 742 748 757 767 774 780 785 790 793 798 803 805 808 812 816 819
821 816 809 807 800 797 790 784 777 771 763 758 752 745 739 735 732 730 729 728 730 732 730 734 737 738 745 750 755 760 765 773 779 784 786 789 795 800 804 808 811 814 816 818
823 815 811 809 805 801 796 788 783 776 771 767 761 755 751 744 739 738 739 740 741 741 739 739 744 748 754 758 762 767 772 777 781 785 788 792 797 802 805 808 811 814 815 817
824 821 818 814 809 804 799 792 786 783 779 774 769 764 759 755 752 750 748 745 744 746 748 748 752 758 760 763 766 772 777 782 785 789 793 797 800 803 805 807 811 813 815 816
825 821 818 814 810 806 802 797 793 790 785 782 777 772 769 766 763 760 757 753 750 756 757 758 761 766 768 770 774 779 783 787 790 793 796 799 800 801 804 808 811 812 813 815
825 820 818 815 812 809 807 804 801 798 794 789 785 781 778 776 772 770 768 765 764 764 765 766 769 771 773 776 781 785 788 790 792 796 799 800 801 803 806 808 809 811 814 816
830 826 823 820 817 813 809 807 804 801 798 794 790 788 786 782 781 778 775 774 774 773 773 774 775 777 779 782 784 786 790 793 795 797 798 800 803 805 806 808 810 811 813 815
832 829 825 822 818 815 813 810 807 803 800 797 792 791 790 788 784 783 781 780 780 780 781 781 781 782 784 786 787 789 791 794 795 797 798 800 802 806 808 808 810 811 812 812
832 830 827 825 822 819 816 813 811 806 803 799 795 793 792 791 789 787 786 786 786 785 785 785 785 786 787 788 789 791 793 794 795 797 800 802 804 805 807 807 808 809 810 810
833 830 828 825 822 820 817 814 810 808 805 802 799 797 797 795 793 790 788 788 788 788 788 788 788 788 788 789 790 792 793 794 795 798 800 801 803 805 805 806 807 808 809 809
835 832 829 826 824 821 818 816 814 811 808 805 803 801 800 797 794 791 790 790 790 790 789 789 789 788 790 790 791 791 792 794 796 798 800 800 802 803 804 804 805 806 807 808
836 833 831 828 825 823 820 817 815 813 809 807 804 802 801 799 796 794 793 792 792 791 790 789 789 789 789 789 788 789 792 794 795 797 798 800 800 800 802 803 804 803 805 807
837 835 832 830 827 824 821 818 816 813 810 808 806 804 802 798 796 794 793 791 790 791 790 788 788 788 787 787 788 789 791 792 794 795 797 798 798 801 801 801 801 802 804 805
838 836 833 831 827 825 823 820 816 814 811 808 805 803 800 798 797 794 791 790 790 789 787 786 786 786 785 787 789 790 792 792 793 794 796 797 799 800 799 799 800 802 802 801
838 836 833 832 830 828 825 822 819 816 813 811 807 805 802 799 796 794 792 791 789 788 787 786 786 786 787 788 789 790 790 792 793 794 794 796 795 797 797 798 799 800 799 799
837 835 833 832 830 829 827 824 821 819 816 813 809 806 803 800 797 794 791 789 787 786 786 786 785 785 786 787 789 789 790 791 791 792 792 793 794 795 796 796 796 797 798 798